Volver al catálogo

ITALSAT 1

ActivoComunicacionesGEO
NORAD 21055·PAYLOAD·🇮🇹 Italy

Lanzado Jan 15, 1991 desde Guiana Space Centre

Loading…

TLE

ActualizadoSource: Space-Track

Época: Sep 13, 2026, 15:05 UTC

1 21055U 91003A   26256.62892209 -.00000375  00000-0  00000-0 0  9991
2 21055  14.5285 350.8147 0009314  57.7283 291.8475  0.99966485117963

Sigue ITALSAT 1 en tiempo real con AllMySat

Download on the App Store